Flag for United Kingdom Weather past 2 weeks in Sunderland, England, United Kingdom

Now
37 °F

Passing clouds.


Feels Like: 27 °F
Forecast: 40 / 47 °F
Wind: 21 mph from West

Location: Newcastle

Current Time: Mar 30, 2015 at 1:28:08 AM

Latest Report: Mar 30, 2015 at 12:50 AM


Visibility: N/A

Pressure: 29.33 "Hg

Humidity: 81%

Dew point: 32 °F

Location of SunderlandLocation

Historic Weather in Sunderland — Graph

°F

Sunderland temperature yesterday

Maximum temperature yesterday: 48 °F (at 11:20 AM)
Minimum temperature yesterday: 37 °F (at 11:20 PM)
Average temperature yesterday: 43 °F

Past Weeks' High & Low Weather Summary

 TemperatureHumidityPressure
High57 °F (Mar 28, 11:50 AM)100% (Mar 16, 8:20 AM)30.60 "Hg (Mar 16, 8:20 AM)
Low28 °F (Mar 22, 4:20 AM)47% (Mar 19, 2:50 PM)29.15 "Hg (Mar 29, 11:20 AM)
Average42 °F81%30.03 "Hg
* Reported Mar 14 11:20 PM — Mar 30 12:20 AM, Sunderland, Weather by CustomWeather, © 2015

Note: Actual official high and low records may vary slightly from our data, if they occured in-between our weather recording intervals... More about our weather records

Advertising

Sunderland weather history for previous 24 hours

 ConditionsComfort  
Time TempWeatherWind HumidityBarometerVisibility
12:20 AM
Mon, Mar 30
37 °FPassing clouds.20 mph81%29.33 "HgN/A
11:50 PM
Sun, Mar 29
37 °FPassing clouds.24 mph81%29.33 "HgN/A
11:20 PM37 °FPassing clouds.23 mph81%29.30 "HgN/A
10:50 PM39 °FPassing clouds.23 mph75%29.30 "HgN/A
10:20 PM39 °FPassing clouds.25 mph75%29.27 "HgN/A
9:50 PM39 °FPassing clouds.25 mph75%29.27 "HgN/A
9:20 PM39 °FPassing clouds.23 mph75%29.24 "HgN/A
8:50 PM41 °FPassing clouds.23 mph70%29.24 "HgN/A
8:20 PM41 °FPassing clouds.20 mph76%29.24 "HgN/A
7:50 PM41 °FPassing clouds.18 mph76%29.24 "HgN/A
7:20 PM41 °FSprinkles. Passing clouds.20 mph81%29.21 "HgN/A
6:50 PM43 °FPassing clouds.24 mph81%29.18 "HgN/A
6:20 PM45 °FPassing clouds.23 mph76%29.18 "HgN/A
5:50 PM45 °FPassing clouds.22 mph81%29.18 "HgN/A
5:20 PM46 °FPassing clouds.21 mph71%29.15 "HgN/A
4:50 PM46 °FPassing clouds.20 mph76%29.15 "HgN/A
4:20 PM46 °FScattered showers. Broken clouds.18 mph82%29.15 "HgN/A
3:50 PM45 °FMixture of precip. Scattered clouds.15 mph87%29.15 "HgN/A
3:20 PM46 °FPassing clouds.16 mph82%29.15 "HgN/A
2:50 PM46 °FScattered showers. Scattered clouds.15 mph76%29.15 "HgN/A
2:20 PM46 °FPassing clouds.17 mph82%29.15 "HgN/A
1:20 PM45 °FSprinkles. Partly sunny.12 mph81%29.15 "HgN/A
12:50 PM45 °FScattered showers. Partly sunny.12 mph87%29.15 "HgN/A
12:20 PM45 °FSprinkles. Broken clouds.10 mph87%29.15 "HgN/A
11:50 AM46 °FScattered showers. Partly sunny.16 mph76%29.15 "HgN/A
11:20 AM48 °FScattered clouds.16 mph76%29.15 "HgN/A
10:50 AM46 °FPartly sunny.13 mph76%29.18 "HgN/A
10:20 AM45 °FPartly sunny.14 mph81%29.18 "HgN/A
9:50 AM45 °FScattered clouds.10 mph81%29.18 "HgN/A
9:20 AM45 °FScattered clouds.10 mph81%29.21 "HgN/A
8:50 AM43 °FDrizzle. Partly sunny.14 mph81%29.24 "HgN/A
8:20 AM43 °FPassing clouds.13 mph81%29.24 "HgN/A
7:50 AM43 °FScattered clouds.12 mph87%29.27 "HgN/A
7:20 AM43 °FPassing clouds.9 mph81%29.27 "HgN/A
6:50 AM43 °FPassing clouds.12 mph81%29.27 "HgN/A
6:20 AM43 °FPassing clouds.13 mph81%29.30 "HgN/A
5:50 AM43 °FPassing clouds.16 mph87%29.30 "HgN/A
5:20 AM43 °FPartly cloudy.20 mph87%29.33 "HgN/A
4:50 AM43 °FPassing clouds.18 mph87%29.33 "HgN/A
4:20 AM43 °FPartly cloudy.16 mph87%29.33 "HgN/A
3:50 AM45 °FPassing clouds.22 mph81%29.33 "HgN/A
3:20 AM45 °FSprinkles. Passing clouds.24 mph81%29.33 "HgN/A
2:50 AM45 °FSprinkles. Passing clouds.22 mph81%29.33 "HgN/A
2:20 AM45 °FSprinkles. Passing clouds.21 mph81%29.33 "HgN/A
Weather by CustomWeather, © 2015

See weather overviewHow to use our weather pages